THORAD DELTA 1 DEB, 8405

Orbit data source: Space-Track

THORAD DELTA 1 DEB, 8405 is space debris in LEO originally from a launch on Fri, 15 Nov 1974 UTC launched from the Air Force Western Test Range (AFWTR). Debris objects in space refer to the collection of defunct objects orbiting the Earth. Examples of debris include non-operational satellites, rocket bodies, and fragments generated from explosions, collisions, or faulty payload assembly.

Loading next visibility...
Identifier
8405, 1974-089CH
Orbit
LEO
Country
Flag of USUS
Related business
Manufacturer
Unknown
Mission
Spacecraft
Bus & Motor
Unknown
Mass
Unknown
Launch date (UTC)
1974-11-15 (51 years ago)
Launch vehicle
Unknown
Launch site
Air Force Western Test Range (AFWTR)
Object type
Payload
Rocket body
Debris
Shape & HBR
Unknown shape, 0.1 m
Radar Cross Section
Small (<0.1 m²)

Expand to show TLE details & history
Last TLE update: 17 hours ago

TLE from 17 hours ago
0 THORAD DELTA 1 DEB
1  8405U 74089CH  26095.23671311 -.00000586  00000-0 -90729-2 0  9991
2  8405 102.7276   6.3556 0691885 269.8398  82.3370 11.30556918122615
Epoch: 2026-04-05T05:40Z
TLE epoch observation values (Epoch: 2026-04-05T05:40:52.012Z)
Latitude
-0.00001°
Longitude
87.59386°
Altitude
1,972.444 km
Speed
6.926 km/s
True Right ascension
00h 25m 25s
True Declination
0° 00' 00"
Sunlit
Object was in daylight at epoch
Visualization orbit readout
Latitude
Unknown
Longitude
Unknown
Altitude
Unknown
Speed
Unknown
Apparent Right ascension
Unknown
Apparent Declination
Unknown
Sunlit
N/A
Visualization observer readout
Local Sidereal Time
04:55:37
Azimuth
Unknown
Elevation
Unknown
Doppler factor
Unknown
Orbital elements
Apogee altitude
2,585.365 km
Perigee altitude
1,425.287 km
Semi-major axis
8,383.463 km
Eccentricity
0.06919
Inclination
102.7276°
RAAN
6.3556°
Arg. of periapsis
269.8398°
True anomaly
90.26088°
Mean anomaly
82.337°
Eccentric anomaly
86.29291°
Mean motion
2.82753 °/min
Orbital period
127.32 mins
BSTAR
-0.0090729
Loading maneuver chart data...
Computing Atmospheric mass density...

Documentation

Showing up to 5 results
|